Weather History for Oxford, CT

Change the Weather History Date:

Thursday, November 24, 2011

  Actual Average Record
Temperature  
Mean Temperature 38 °F -  
Max Temperature 46 °F 44 °F 62 °F (1999)
Min Temperature 30 °F 30 °F 12 °F (2000)
Degree Days  
Heating Degree Days 27    
Moisture  
Dew Point 28 °F    
Average Humidity 72    
Maximum Humidity 87    
Minimum Humidity 53    
Precipitation  
Precipitation 0.00 in - - ()
Sea Level Pressure  
Sea Level Pressure 30.11 in    
Wind  
Wind Speed 9 mph (NNW)    
Max Wind Speed 17 mph    
Max Gust Speed 25 mph    
Visibility 10 miles    
Events      
Averages and records for this station are not official NWS values.
T = Trace of Precipitation, MM = Missing Value Source: NWS Daily Summary

Daily Weather History Graph

Daily Weather History Graph

Search for Another Location

Airport:

Trip Planner

Search our weather history database for the weather conditions in past years. The results will help you decide how hot, cold, wet, or windy it might be!

Date:

Astronomy

Nov. 24, 2011 Rise Set
Actual Time 6:51 AM EST 4:26 PM EST
Civil Twilight 6:21 AM EST 4:56 PM EST
Nautical Twilight 5:47 AM EST 5:30 PM EST
Astronomical Twilight 5:13 AM EST 6:04 PM EST
Moon 6:06 AM EST (11/24) 3:54 PM EST (11/24)
Length of Visible Light 10h 35m
Length of Day
9h 35m
Waning Crescent, 0% of the Moon is Illuminated
Nov 24
Waning Crescent
Nov 25
New
Dec 2
First Quarter
Dec 10
Full
Dec 17
Last Quarter

Hourly Weather History & Observations

Time (EST) Temp. Windchill Dew Point Humidity Pressure Visibility Wind Dir Wind Speed Gust Speed Precip Events Conditions
12:15 AM 37.4 °F 28.2 °F 28.4 °F 70% 29.99 in 10.0 mi NNW 16.1 mph 25.3 mph N/A   Overcast
12:35 AM 37.4 °F 27.8 °F 26.6 °F 65% 30.00 in 10.0 mi NNW 17.3 mph 21.9 mph N/A   Scattered Clouds
12:55 AM 35.6 °F 26.2 °F 26.6 °F 70% 30.01 in 10.0 mi NNW 15.0 mph 24.2 mph N/A   Clear
1:15 AM 35.6 °F 26.2 °F 26.6 °F 70% 30.01 in 10.0 mi NNW 15.0 mph 20.7 mph N/A   Clear
1:55 AM 35.6 °F 27.5 °F 26.6 °F 70% 30.02 in 10.0 mi NNW 11.5 mph - N/A   Clear
2:15 AM 35.6 °F 27.5 °F 26.6 °F 70% 30.03 in 10.0 mi NNW 11.5 mph 18.4 mph N/A   Clear
2:35 AM 35.6 °F 27.5 °F 26.6 °F 70% 30.04 in 10.0 mi NNW 11.5 mph - N/A   Clear
2:55 AM 35.6 °F 27.5 °F 26.6 °F 70% 30.04 in 10.0 mi NNW 11.5 mph 17.3 mph N/A   Clear
3:15 AM 35.6 °F 27.1 °F 26.6 °F 70% 30.05 in 10.0 mi NNW 12.7 mph - N/A   Clear
3:55 AM 33.8 °F 25.3 °F 26.6 °F 75% 30.06 in 10.0 mi NNW 11.5 mph - N/A   Clear
4:15 AM 33.8 °F 24.8 °F 26.6 °F 75% 30.08 in 10.0 mi NNW 12.7 mph - N/A   Clear
4:35 AM 33.8 °F 29.6 °F 26.6 °F 75% 30.08 in 10.0 mi NW 4.6 mph - N/A   Clear
4:55 AM 33.8 °F 28.6 °F 26.6 °F 75% 30.10 in 10.0 mi NNW 5.8 mph - N/A   Clear
5:15 AM 33.8 °F 29.6 °F 26.6 °F 75% 30.11 in 10.0 mi NW 4.6 mph - N/A   Clear
5:35 AM 32.0 °F - 26.6 °F 80% 30.11 in 10.0 mi Calm Calm - N/A   Partly Cloudy
5:45 AM 32.0 °F 28.7 °F 26.6 °F 80% 30.11 in 10.0 mi NW 3.5 mph - N/A   Partly Cloudy
6:45 AM 30.2 °F 26.7 °F 26.6 °F 86% 30.13 in 10.0 mi NW 3.5 mph - N/A   Clear
7:45 AM 30.2 °F - 26.6 °F 86% 30.15 in 10.0 mi Calm Calm - N/A   Clear
8:45 AM 35.6 °F 30.7 °F 26.6 °F 70% 30.15 in 10.0 mi NNW 5.8 mph - N/A   Clear
9:45 AM 37.4 °F 32.1 °F 28.4 °F 70% 30.16 in 10.0 mi North 6.9 mph - N/A   Partly Cloudy
10:45 AM 39.2 °F 33.6 °F 28.4 °F 65% 30.16 in 10.0 mi NNW 8.1 mph - N/A   Partly Cloudy
11:45 AM 42.8 °F 38.0 °F 28.4 °F 57% 30.14 in 10.0 mi NNW 8.1 mph - N/A   Clear
1:45 PM 46.4 °F 43.5 °F 30.2 °F 53% 30.13 in 10.0 mi NW 5.8 mph - N/A   Clear
3:45 PM 46.4 °F - 30.2 °F 53% 30.15 in 10.0 mi Calm Calm - N/A   Clear
4:45 PM 44.6 °F - 28.4 °F 53% 30.15 in 10.0 mi Calm Calm - N/A   Clear
5:45 PM 39.2 °F - 30.2 °F 70% 30.17 in 10.0 mi Calm Calm - N/A   Clear
6:45 PM 37.4 °F - 28.4 °F 70% 30.17 in 10.0 mi Calm Calm - N/A   Clear
7:45 PM 39.2 °F - 30.2 °F 70% 30.17 in 10.0 mi Calm Calm - N/A   Clear
8:45 PM 35.6 °F - 30.2 °F 81% 30.17 in 10.0 mi Calm Calm - N/A   Clear
9:15 PM 35.6 °F - 30.2 °F 81% 30.17 in 10.0 mi Calm Calm - N/A   Clear
9:35 PM 37.4 °F - 32.0 °F 81% 30.17 in 10.0 mi Calm Calm - N/A   Clear
9:55 PM 37.4 °F - 30.2 °F 75% 30.17 in 10.0 mi Calm Calm - N/A   Clear
10:15 PM 35.6 °F - 30.2 °F 81% 30.17 in 10.0 mi Calm Calm - N/A   Clear
10:35 PM 33.8 °F - 30.2 °F 87% 30.16 in 10.0 mi Calm Calm - N/A   Clear
10:55 PM 33.8 °F - 30.2 °F 87% 30.16 in 10.0 mi Calm Calm - N/A   Clear